This demonstration page uses our WeatherBlox Daily Observations layout. Learn more.

Left ArrowRight Arrow

44.89941, -97.11507

Hourly Observations for July 27, 2020

Temp ( °F °C ) Dew Point ( °F °C ) Humidity (%) Winds ( mph kmh ) Pressure ( in mb ) Visibility ( mi km ) Precip ( " mm )
12:53 am 00:53 Clear 66 18.9 60 15.6 81 81 W 6 9 30.05 1018 10 16 0.00 0.00
1:53 am 01:53 Clear 64 17.8 60 15.6 87 87 Calm 30.05 1018 10 16 0.00 0.00
2:53 am 02:53 Clear 64 17.8 59 15 84 84 Calm 30.05 1018 10 16 0.00 0.00
3:53 am 03:53 Clear 60 15.6 58 14.4 93 93 S 3 6 30.06 1018 10 16 0.00 0.00
4:53 am 04:53 Clear 59 15 57 13.9 93 93 SSE 5 7 30.05 1018 10 16 0.00 0.00
5:53 am 05:53 Clear 60 15.6 58 14.4 93 93 S 5 7 30.06 1018 10 16 0.00 0.00
6:53 am 06:53 Sunny 62 16.7 59 15 90 90 S 3 6 30.06 1018 10 16 0.00 0.00
7:53 am 07:53 Sunny 67 19.4 62 16.7 84 84 W 7 11 30.06 1018 10 16 0.00 0.00
8:53 am 08:53 Sunny 72 22.2 62 16.7 71 71 W 7 11 30.06 1018 10 16 0.00 0.00
9:53 am 09:53 Sunny 74 23.3 59 15 60 60 WNW 8 13 30.07 1018 10 16 0.00 0.00
10:53 am 10:53 Sunny 76 24.4 58 14.4 54 54 WNW 9 15 30.07 1018 10 16 0.00 0.00
11:53 am 11:53 Sunny 78 25.6 56 13.3 47 47 W 9 15 30.07 1018 10 16 0.00 0.00
12:53 pm 12:53 Sunny 79 26.1 56 13.3 45 45 NW 8 13 30.06 1018 10 16 0.00 0.00
1:53 pm 13:53 Sunny 81 27.2 56 13.3 42 42 WNW 9 15 30.05 1018 10 16 0.00 0.00
2:53 pm 14:53 Sunny 81 27.2 55 12.8 41 41 NW 9 15 30.04 1017 10 16 0.00 0.00
3:53 pm 15:53 Sunny 81 27.2 55 12.8 41 41 WSW 7 11 30.02 1017 10 16 0.00 0.00
4:53 pm 16:53 Sunny 81 27.2 57 13.9 44 44 W 13 20 30.01 1016 10 16 0.00 0.00
5:53 pm 17:53 Sunny 81 27.2 60 15.6 49 49 SW 10 17 29.99 1016 10 16 0.00 0.00
6:53 pm 18:53 Sunny 80 26.7 62 16.7 54 54 SW 6 9 29.96 1015 10 16 0.00 0.00
7:53 pm 19:53 Sunny 79 26.1 63 17.2 58 58 SSW 9 15 29.94 1014 10 16 0.00 0.00
8:53 pm 20:53 Sunny 74 23.3 65 18.3 74 74 S 7 11 29.93 1013 10 16 0.00 0.00
9:53 pm 21:53 Clear 72 22.2 64 17.8 76 76 SSW 7 11 29.93 1014 10 16 0.00 0.00
10:53 pm 22:53 Clear 71 21.7 62 16.7 73 73 SW 9 15 29.93 1013 10 16 0.00 0.00
11:53 pm 23:53 Clear 69 20.6 62 16.7 78 78 SW 8 13 29.93 1013 10 16 0.00 0.00

Powered by AerisWeather